"Pseudo-MPEC" for P21Y2I6

Created 2024 Sep 8 21:22:19 UT using Find_Orb

Click here for an explanation of pseudo-MPECs

 
 Astrometry: 
     P21Y2I6* C2024 09 05.26942821 24 36.169+15 37 00.90   ~9587 21.52wXNEOCPF52
     P21Y2I6  C2024 09 05.28130821 24 34.159+15 35 42.03   ~9587 21.81wXNEOCPF52
     P21Y2I6  C2024 09 05.29320421 24 32.091+15 34 23.72   ~9587 21.48wXNEOCPF52
     P21Y2I6 KC2024 09 05.38469221 24 01.909+15 22 37.43   ~95A7 21.3 GVNEOCPH01
     P21Y2I6  C2024 09 05.38895421 24 01.453+15 22 08.46   ~95A7 21.7 GVNEOCPH01
     P21Y2I6 KC2024 09 05.40357621 23 59.999+15 20 29.34   ~95A7 21.5 GVNEOCPH01
     P21Y2I6 KC2024 09 05.40833421 23 59.571+15 19 57.11   ~95A7 21.5 GVNEOCPH01
     P21Y2I6  C2024 09 05.44973521 24 04.606+15 17 23.26   ~95J7 21.66GVNEOCPF51

Station data:
(F51) Pan-STARRS 1, Haleakala  (N20.707234 W156.255910)  US/Hawaii.
   Observers J. Bulger, T. Lowe, A. Schultz, M. Willman. Measurers K.
   Chambers, S. Chastel, T. de Boer, L. Denneau, J. Fairlamb, H. Flewelling,
   M. Huber, C.-C. Lin, E. Magnier, Y. Ramanjooloo, R. Wainscoat, R. Weryk.
   1.8-m Ritchey-Chrétien + CCD.
(F52) Pan-STARRS 2, Haleakala  (N20.707382 W156.255910)  US/Hawaii.
   Observers J. Bulger, T. Dukes, T. Lowe, A. Schultz, M. Willman. Measurers
   K. Chambers, S. Chastel, T. de Boer, L. Denneau, J. Fairlamb, H.
   Flewelling, M. Huber, C.-C. Lin, E. Magnier, Y. Ramanjooloo, R. Wainscoat,
   R. Weryk. 1.8-m Ritchey-Chrétien + CCD.
(H01) Magdalena Ridge Observatory, Socorro  (N33.984833 W107.189333)  US/New
   Mexico.  Observers W. H. Ryan, E. V. Ryan. Measurer W. H. Ryan. 2.4-m
   f/8.9 reflector + CCD.

Orbital elements:  P21Y2I6
   Perihelion 2024 Jun 27.47982 +/- 0.752 TT = 11:30:56 (JD 2460488.97982)
Epoch 2024 Sep  5.0 TT = JDT 2460558.5   Earth MOID: 0.0021   Ve: 0.0337
M  66.37545909 +/- 1.3              (J2000 ecliptic)             AutoNEOCP
n   0.95476541 +/- 0.00886          Peri.  246.83912 +/- 0.16
a   1.02142134 +/- 0.00632          Node   339.57809 +/- 0.08
e   0.4266592 +/- 0.00824           Incl.   12.87151 +/- 0.36
P   1.032/377.049d         H 28.23  G  0.15   U  9.6
q 0.58562243 +/- 0.00479    Q 1.45722025 +/- 0.0174
From 8 observations 2024 Sept. 5 (4.3 hr); mean residual 0".09
Residuals in arcseconds: 
240905 F52  .01-  .09+    240905 H01  .10+  .11+    240905 H01  .00   .19-    
240905 F52  .03+  .16-    240905 H01  .01+  .11+    240905 F51  .00   .00     
240905 F52  .02-  .07+    240905 H01  .12-  .03-    

Ephemerides (geocentric):
Date (UTC) HH   RA             Dec           delta  r     elong  mag " sig PA
---- --------  ------------   ------------  ------ ------ -----  --- --------
2024 09 08 21  21 23 27.544   +12 26 33.56  .05594 1.0552 148.1 23.4  122   3
2024 09 08 22  21 23 27.546   +12 25 31.94  .05630 1.0555 148.1 23.4  124   3
2024 09 08 23  21 23 27.556   +12 24 31.04  .05665 1.0558 148.1 23.4  125   3
2024 09 09 00  21 23 27.574   +12 23 30.84  .05701 1.0561 148.1 23.4  126   3
2024 09 09 01  21 23 27.599   +12 22 31.33  .05737 1.0564 148.1 23.4  128   3
2024 09 09 02  21 23 27.632   +12 21 32.49  .05773 1.0567 148.1 23.5  129   3
2024 09 09 03  21 23 27.673   +12 20 34.31  .05809 1.0570 148.1 23.5  130   3
2024 09 09 04  21 23 27.721   +12 19 36.78  .05844 1.0573 148.0 23.5  131   3
2024 09 09 05  21 23 27.777   +12 18 39.89  .05880 1.0575 148.0 23.5  133   3
2024 09 09 06  21 23 27.840   +12 17 43.62  .05916 1.0578 148.0 23.5  134   3
2024 09 09 07  21 23 27.910   +12 16 47.97  .05952 1.0581 148.0 23.5  135   3
2024 09 09 08  21 23 27.987   +12 15 52.92  .05988 1.0584 148.0 23.5  136   3
2024 09 09 09  21 23 28.071   +12 14 58.46  .06024 1.0587 148.0 23.6  138   3
2024 09 09 10  21 23 28.162   +12 14 04.59  .06059 1.0590 148.0 23.6  139   3
2024 09 09 11  21 23 28.260   +12 13 11.28  .06095 1.0593 147.9 23.6  140   3
2024 09 09 12  21 23 28.365   +12 12 18.53  .06131 1.0596 147.9 23.6  141   3
2024 09 09 13  21 23 28.477   +12 11 26.34  .06167 1.0599 147.9 23.6  143   3
2024 09 09 14  21 23 28.595   +12 10 34.68  .06203 1.0602 147.9 23.6  144   3
2024 09 09 15  21 23 28.720   +12 09 43.56  .06239 1.0605 147.9 23.6  145   3
2024 09 09 16  21 23 28.852   +12 08 52.96  .06274 1.0607 147.9 23.7  146   3
2024 09 09 17  21 23 28.990   +12 08 02.88  .06310 1.0610 147.8 23.7  147   3
2024 09 09 18  21 23 29.134   +12 07 13.30  .06346 1.0613 147.8 23.7  148   3
2024 09 09 19  21 23 29.285   +12 06 24.21  .06382 1.0616 147.8 23.7  150   3
2024 09 09 20  21 23 29.442   +12 05 35.61  .06418 1.0619 147.8 23.7  151   3
2024 09 09 21  21 23 29.605   +12 04 47.50  .06454 1.0622 147.8 23.7  152   3
2024 09 09 22  21 23 29.774   +12 03 59.85  .06490 1.0625 147.8 23.7  153   3
2024 09 09 23  21 23 29.950   +12 03 12.67  .06526 1.0628 147.8 23.7  154   3
2024 09 10 00  21 23 30.131   +12 02 25.94  .06561 1.0631 147.7 23.8  155   3
2024 09 10 01  21 23 30.319   +12 01 39.66  .06597 1.0633 147.7 23.8  156   3
2024 09 10 02  21 23 30.512   +12 00 53.82  .06633 1.0636 147.7 23.8  157   3
2024 09 10 03  21 23 30.711   +12 00 08.42  .06669 1.0639 147.7 23.8  158   3
2024 09 10 04  21 23 30.917   +11 59 23.44  .06705 1.0642 147.7 23.8  160   3
2024 09 10 05  21 23 31.128   +11 58 38.88  .06741 1.0645 147.7 23.8  161   3
2024 09 10 06  21 23 31.344   +11 57 54.74  .06777 1.0648 147.6 23.8  162   3
2024 09 10 07  21 23 31.567   +11 57 11.00  .06813 1.0651 147.6 23.8  163   3
2024 09 10 08  21 23 31.795   +11 56 27.66  .06849 1.0654 147.6 23.9  164   3
2024 09 10 09  21 23 32.028   +11 55 44.72  .06885 1.0657 147.6 23.9  165   3
2024 09 10 10  21 23 32.267   +11 55 02.16  .06921 1.0659 147.6 23.9  166   3
2024 09 10 11  21 23 32.512   +11 54 19.98  .06957 1.0662 147.6 23.9  167   3
2024 09 10 12  21 23 32.762   +11 53 38.18  .06992 1.0665 147.5 23.9  168   3
2024 09 10 13  21 23 33.018   +11 52 56.75  .07028 1.0668 147.5 23.9  169   3
2024 09 10 14  21 23 33.279   +11 52 15.68  .07064 1.0671 147.5 23.9  170   3
2024 09 10 15  21 23 33.545   +11 51 34.97  .07100 1.0674 147.5 23.9  171   3
2024 09 10 16  21 23 33.816   +11 50 54.61  .07136 1.0677 147.5 23.9  172   3
2024 09 10 17  21 23 34.093   +11 50 14.60  .07172 1.0680 147.4 24.0  173   3
2024 09 10 18  21 23 34.375   +11 49 34.93  .07208 1.0682 147.4 24.0  174   3
2024 09 10 19  21 23 34.662   +11 48 55.60  .07244 1.0685 147.4 24.0  175   3
2024 09 10 20  21 23 34.955   +11 48 16.60  .07280 1.0688 147.4 24.0  176   3